Regional Weather Roundup
Issued by NWS

Home | Current Version | Previous Version | Text Only | Print | Product List | Glossary Off
Versions: 1 2 3 4 5 6 7 8 9 10 11 12 13 14 15 16 17 18 19 20 21 22 23 24 25 26 27 28 29 30 31 32 33 34 35 36 37 38 39 40 41 42 43 44 45 46 47 48 49 50

000
ASUS45 KPSR 180500
RWRAZ

PRELIMINARY ARIZONA REGIONAL HOURLY WEATHER ROUNDUP
NATIONAL WEATHER SERVICE PHOENIX AZ
1000 PM MST WED SEP 17 2014

NOTE: FAIR INDICATES FEW OR NO CLOUDS BELOW 12,000 FEET WITH NO
SIGNIFICANT WEATHER AND/OR OBSTRUCTIONS TO VISIBILITY.

AZZ001>003-036-180600-
NORTHWEST ARIZONA

CITY           SKY/WX    TMP DP  RH WIND       PRES   REMARKS
KINGMAN        CLEAR     71  61  70 SE3       29.92R
$$

AZZ004>008-015-016-018-180600-
NORTH CENTRAL ARIZONA

CITY           SKY/WX    TMP DP  RH WIND       PRES   REMARKS
GRAND CANYON   CLEAR     55  47  74 CALM      30.16F
PRESCOTT       CLEAR     63  58  83 CALM      30.05S
FLAGSTAFF      CLEAR     54  52  93 CALM      30.19S
PAYSON         PTCLDY    64  61  88 E5        30.07R
PAGE           CLEAR     74  57  55 SW3       29.99S
$$

AZZ009>014-017-180600-
NORTHEAST ARIZONA

CITY           SKY/WX    TMP DP  RH WIND       PRES   REMARKS
WINSLOW        NOT AVBL
SAINT JOHNS    CLOUDY    64  59  83 E6        30.10S
WINDOW ROCK    PTCLDY    60  46  59 E3        30.19
SHOW LOW       MOCLDY    57  55  94 CALM      30.16F
$$

AZZ023-180600-
GREATER PHOENIX AREA

CITY           SKY/WX    TMP DP  RH WIND       PRES   REMARKS
PHOENIX        PTCLDY    82  71  69 E5        29.74S
DEER VALLEY    CLEAR     81  67  62 E3        29.77S
SCOTTSDALE     CLEAR     84  64  50 E6        29.79S
MESA-GATEWAY   MOCLDY    79  70  73 NE6       29.79S
$$

AZZ027-028-180600-
SOUTHWEST MARICOPA COUNTY AND PINAL COUNTY

CITY           SKY/WX    TMP DP  RH WIND       PRES   REMARKS
CASA GRANDE    PTCLDY    81  64  57 NE12      29.77S
GILA BEND      CLEAR     82  72  69 N2        29.75R
$$

AZZ503-504-507>509-180600-
SOUTHEAST ARIZONA

CITY           SKY/WX    TMP DP  RH WIND       PRES   REMARKS
TUCSON         CLOUDY    76  64  66 E13       29.85R
NOGALES        HVY RAIN  66  65  96 CALM      29.87S FOG
SIERRA VISTA   RAIN      63  63 100 NE10      29.95S FOG
SAFFORD        CLOUDY    69  64  84 SE9       29.93R
$$

AZZ020-021-025-026-031-180600-
SOUTHWEST ARIZONA

CITY           SKY/WX    TMP DP  RH WIND       PRES   REMARKS
YUMA           NOT AVBL
$$

CAZ031-033-041-043-047-048-061-180600-
SOUTHERN CALIFORNIA

CITY           SKY/WX    TMP DP  RH WIND       PRES   REMARKS
DOWNTOWN L.A.  CLEAR     74  59  59 CALM      29.76R
L.A. AIRPORT   PTCLDY    72  59  63 SW9       29.77R
SAN DIEGO      PTCLDY    75  67  76 NW3       29.81R
BURBANK        CLEAR     81  54  39 SW3       29.77R
ONTARIO        PTCLDY    79  54  41 W7        29.80R
RIVERSIDE      PTCLDY    81  55  40 W5        29.80R
PALM SPRINGS   CLEAR     93  64  38 SW6       29.71R
EL CENTRO NAS  PTCLDY    93  63  36 S3        29.65S
IMPERIAL       CLEAR     92  66  42 SW3       29.65R
BLYTHE         CLEAR     89  66  46 SE6       29.69S
$$

NVZ020-UTZ003-180600-
SOUTHERN NEVADA-UTAH

CITY           SKY/WX    TMP DP  RH WIND       PRES   REMARKS
LAS VEGAS      NOT AVBL
SALT LAKE CITY PTCLDY    78  40  25 SE12      29.88S
$$

NMZ009-TXZ055-180600-
NEW MEXICO-WEST TEXAS

CITY           SKY/WX    TMP DP  RH WIND       PRES   REMARKS
ALBUQUERQUE    CLOUDY    65  59  81 SE3       30.12F
EL PASO        CLOUDY    67  64  90 S5        30.05R
$$


........................KEY........................
SKY/WX - SKY CONDITION/WEATHER
TMP    - TEMPERATURE IN FAHRENHEIT
DP     - DEW POINT IN FAHRENHEIT
RH     - RELATIVE HUMIDITY IN PERCENT
WIND   - DIRECTION AND SPEED IN MILES PER HOUR (MPH)
VRB    - VARIABLE WIND DIRECTION
PRES   - MEAN SEA LEVEL PRESSURE IN INCHES OF MERCURY
         F - FALLING PRESSURE   R - RISING PRESSURE
         S - STEADY PRESSURE
VSB    - VISIBILITY IN MILES
HX     - HEAT INDEX IN FAHRENHEIT
WCI    - WIND CHILL INDEX IN FAHRENHEIT
TC     - TEMPERATURE IN CELSIUS WHICH IS ALSO KNOWN AS
         TEMPERATURE IN CENTIGRADE
AFB    - AIR FORCE BASE
         LUKE AFB IS LUKE AIR FORCE BASE
         DAVIS-MONTHAN IS DAVIS-MONTHAN AIR FORCE BASE
NAS    - NAVAL AIR STATION
         EL CENTRO NAS IS EL CENTRO NAVAL AIR STATION
N/A    - NOT AVAILABLE


USA.gov is the U.S. government's official web portal to all federal, state and local government web resources and services.